Weather History for Molokai, HI

Change the Weather History Date:

Monday, May 14, 2012

  Actual Average Record
Temperature  
Mean Temperature 72 °F -  
Max Temperature 79 °F 81 °F 85 °F (1986)
Min Temperature 63 °F 68 °F 60 °F (2007)
Cooling Degree Days 6    
Growing Degree Days 22 (Base 50)    
Moisture  
Dew Point 59 °F    
Average Humidity 66    
Maximum Humidity 87    
Minimum Humidity 45    
Precipitation  
Precipitation 0.00 in - - ()
Sea Level Pressure  
Sea Level Pressure 30.03 in    
Wind  
Wind Speed 5 mph (NE)    
Max Wind Speed 9 mph    
Max Gust Speed -    
Visibility 10 miles    
Events      
Averages and records for this station are not official NWS values.
T = Trace of Precipitation, MM = Missing Value Source: NWS Daily Summary

Daily Weather History Graph

Daily Weather History Graph

Search for Another Location

Airport:

Trip Planner

Search our weather history database for the weather conditions in past years. The results will help you decide how hot, cold, wet, or windy it might be!

Date:

Astronomy

May. 14, 2012 Rise Set
Actual Time 5:50 AM HST 6:59 PM HST
Civil Twilight 5:26 AM HST 7:22 PM HST
Nautical Twilight 4:58 AM HST 7:51 PM HST
Astronomical Twilight 4:29 AM HST 8:20 PM HST
Moon 1:49 AM HST (5/14) 2:07 PM HST (5/14)
Length of Visible Light 13h 56m
Length of Day
13h 08m
Waning Crescent, 30% of the Moon is Illuminated
May 14
Waning Crescent
May 20
New
May 28
First Quarter
Jun 4
Full
Jun 11
Last Quarter

Hourly Weather History & Observations

Time (HST) Temp. Dew Point Humidity Pressure Visibility Wind Dir Wind Speed Gust Speed Precip Events Conditions
12:54 AM 66.9 °F 59.0 °F 76% 30.04 in 10.0 mi NNE 6.9 mph - N/A   Clear
1:54 AM 66.0 °F 59.0 °F 78% 30.02 in 10.0 mi NE 3.5 mph - N/A   Clear
2:54 AM 66.0 °F 57.0 °F 73% 30.01 in 10.0 mi NE 5.8 mph - N/A   Clear
3:54 AM 64.9 °F 55.9 °F 73% 30.02 in 10.0 mi NE 5.8 mph - N/A   Clear
4:54 AM 64.9 °F 59.0 °F 81% 30.02 in 10.0 mi NNE 3.5 mph - N/A   Clear
5:54 AM 64.9 °F 57.0 °F 75% 30.03 in 10.0 mi NE 6.9 mph - N/A   Clear
6:54 AM 69.1 °F 57.9 °F 68% 30.04 in 10.0 mi East 4.6 mph - N/A   Clear
7:54 AM 73.0 °F 57.9 °F 59% 30.05 in 10.0 mi Calm Calm - N/A   Clear
8:54 AM 75.9 °F 55.0 °F 48% 30.05 in 10.0 mi Variable 3.5 mph - N/A   Clear
9:54 AM 77.0 °F 55.0 °F 47% 30.05 in 10.0 mi SSE 8.1 mph - N/A   Scattered Clouds
10:54 AM 79.0 °F 55.9 °F 45% 30.05 in 10.0 mi Variable 5.8 mph - N/A   Partly Cloudy
11:54 AM 79.0 °F 60.1 °F 52% 30.04 in 10.0 mi Calm Calm - N/A   Scattered Clouds
12:54 PM 79.0 °F 59.0 °F 50% 30.01 in 10.0 mi South 9.2 mph - N/A   Partly Cloudy
1:54 PM 78.1 °F 59.0 °F 52% 30.01 in 10.0 mi SSE 9.2 mph - N/A   Partly Cloudy
2:54 PM 79.0 °F 60.1 °F 52% 29.99 in 10.0 mi Variable 5.8 mph - N/A   Scattered Clouds
3:54 PM 75.9 °F 61.0 °F 60% 29.99 in 10.0 mi Variable 6.9 mph - N/A   Scattered Clouds
4:54 PM 77.0 °F 61.0 °F 58% 29.99 in 10.0 mi Variable 5.8 mph - N/A   Scattered Clouds
5:54 PM 75.0 °F 61.0 °F 62% 30.00 in 10.0 mi North 8.1 mph - N/A   Scattered Clouds
6:54 PM 72.0 °F 61.0 °F 68% 30.01 in 10.0 mi NNE 5.8 mph - N/A   Clear
7:54 PM 71.1 °F 62.1 °F 73% 30.02 in 10.0 mi NNE 5.8 mph - N/A   Clear
8:54 PM 69.1 °F 62.1 °F 78% 30.04 in 10.0 mi NNE 5.8 mph - N/A   Clear
9:54 PM 69.1 °F 62.1 °F 78% 30.05 in 10.0 mi NNE 4.6 mph - N/A   Clear
10:54 PM 64.0 °F 60.1 °F 87% 30.05 in 10.0 mi NNW 3.5 mph - N/A   Clear
11:54 PM 63.0 °F 59.0 °F 87% 30.04 in 10.0 mi Calm Calm - N/A   Clear